"startDT [UTC]","vpos","CH4 [ppm]","stdev(CH4) [ppm]","CO2 [ppm]","stdev(CO2) [ppm]","H2O [ppm]","stdev(H2O)","p_LGR [torr]","T_LGR [C]","mt1_LGR [us]","mt2_LGR [us]","T_ECpre [C]","T_EC1 [C]","T_EC2 [C]","p_inlet [hPa]","p_in [hPa]","p_out [hPa]","T_inlet [C]","RH_inlet [%]","dwpt_inlet [C]","T_vent [C]","RH_vent [%]","dwpt_vent [C]","flow_vent [l min-1]","flow_inlet [l min-1]","dwpt_sample [C]","T_room [C]"
2012-02-29 00:00:00,0.0,1.9030,0.0008,401.48,0.28,-1.0,0.0,138.24,25.01,24.58,36.22,0.04,-272.73,-272.73,-45,547,-934,17.9,0.7,-42.7,17.9,0.7,-42.1,5.73,2.42,-39.0,22.8
2012-02-29 00:01:00,0.0,1.9035,0.0009,401.46,0.33,-1.0,0.0,138.24,24.99,24.58,36.22,0.04,-272.73,-272.73,-45,547,-934,17.8,0.7,-42.7,17.9,0.7,-42.1,5.73,2.49,-39.1,22.8
2012-02-29 00:02:00,0.0,1.9031,0.0009,401.44,0.27,-1.0,0.0,138.24,24.96,24.58,36.23,0.04,-272.73,-272.73,-45,546,-934,17.9,0.7,-42.5,17.8,0.7,-42.0,5.73,2.51,-39.1,22.8
2012-02-29 00:03:00,0.0,1.9028,0.0009,401.44,0.29,-1.0,0.0,138.24,24.94,24.57,36.23,0.04,-272.73,-272.73,-45,546,-934,17.8,0.7,-42.4,17.8,0.8,-41.8,5.73,2.45,-39.1,22.8
2012-02-29 00:04:00,0.0,1.9033,0.0009,401.39,0.26,-1.0,0.0,138.24,24.91,24.57,36.22,0.04,-272.73,-272.73,-45,546,-934,17.8,0.7,-42.3,17.7,0.8,-41.8,5.73,2.41,-39.1,22.8
2012-02-29 00:05:00,0.0,1.9028,0.0010,401.42,0.25,-1.0,0.0,138.24,24.89,24.58,36.22,0.04,-272.72,-272.73,-45,546,-934,17.7,0.7,-42.2,17.7,0.8,-41.5,5.73,2.43,-39.1,22.8
2012-02-29 00:06:00,0.0,1.9020,0.0009,401.35,0.25,-1.0,0.0,138.24,24.87,24.58,36.22,0.04,-272.72,-272.73,-45,546,-934,17.7,0.7,-42.1,17.7,0.8,-41.5,5.73,2.50,-39.2,22.8
2012-02-29 00:07:00,0.0,1.9023,0.0010,401.42,0.28,-1.0,0.0,138.24,24.84,24.57,36.22,0.04,-272.73,-272.73,-45,546,-934,17.7,0.7,-42.0,17.7,0.8,-41.5,5.73,2.51,-39.2,22.8
2012-02-29 00:08:00,0.0,1.9017,0.0008,401.42,0.25,-1.0,0.0,138.24,24.82,24.58,36.22,0.04,-272.73,-272.73,-45,545,-934,17.7,0.7,-42.1,17.6,0.8,-41.5,5.73,2.45,-39.2,22.8
2012-02-29 00:09:00,0.0,1.9022,0.0009,401.41,0.29,-1.0,0.0,138.24,24.80,24.57,36.22,0.04,-272.73,-272.73,-45,545,-934,17.7,0.7,-42.2,17.6,0.8,-41.5,5.73,2.41,-39.2,22.8
2012-02-29 00:10:00,0.0,1.9026,0.0010,401.46,0.27,-1.0,0.0,138.24,24.78,24.57,36.22,0.04,-272.73,-272.73,-45,545,-933,17.7,0.7,-42.1,17.5,0.8,-41.6,5.73,2.45,-39.2,22.8
2012-02-29 00:11:00,0.0,1.9022,0.0007,401.38,0.25,-1.0,0.0,138.24,24.76,24.58,36.22,0.04,-272.73,-272.73,-45,545,-933,17.6,0.7,-42.5,17.5,0.8,-41.6,5.73,2.51,-39.2,22.7
2012-02-29 00:12:00,0.0,1.9023,0.0010,401.35,0.28,-1.0,0.0,138.25,24.74,24.57,36.22,0.04,-272.73,-272.73,-45,545,-933,17.6,0.7,-42.4,17.5,0.8,-41.9,5.73,2.50,-39.2,22.7
2012-02-29 00:13:00,0.0,1.9024,0.0008,401.44,0.25,-1.0,0.0,138.25,24.72,24.57,36.22,0.04,-272.73,-272.73,-45,545,-933,17.6,0.7,-42.7,17.4,0.7,-42.1,5.73,2.44,-39.2,22.6
2012-02-29 00:14:00,0.0,1.9021,0.0009,401.31,0.25,-1.0,0.0,138.25,24.69,24.58,36.23,0.04,-272.73,-272.73,-44,545,-933,17.5,0.7,-42.8,17.3,0.7,-42.3,5.73,2.41,-39.2,22.6
2012-02-29 00:15:00,0.0,1.9028,0.0009,401.35,0.23,-1.0,0.0,138.25,24.67,24.57,36.22,0.04,-272.73,-272.73,-45,545,-933,17.5,0.7,-42.9,17.3,0.7,-42.3,5.73,2.46,-39.2,22.6
2012-02-29 00:16:00,0.0,1.9026,0.0010,401.38,0.32,-1.0,0.0,138.25,24.65,24.57,36.23,0.04,-272.73,-272.73,-45,544,-933,17.4,0.7,-42.9,17.2,0.7,-42.3,5.73,2.50,-39.2,22.5
2012-02-29 00:17:00,0.0,1.9028,0.0008,401.37,0.27,-1.0,0.0,138.25,24.63,24.57,36.22,0.04,-272.73,-272.73,-45,544,-933,17.4,0.7,-42.9,17.2,0.8,-42.2,5.73,2.50,-39.2,22.5
2012-02-29 00:18:00,0.0,1.9027,0.0010,401.50,0.27,-1.0,0.0,138.25,24.61,24.57,36.22,0.04,-272.73,-272.73,-45,544,-933,17.4,0.7,-42.9,17.1,0.8,-41.8,5.73,2.45,-39.2,22.5
2012-02-29 00:19:00,0.0,1.9025,0.0009,401.42,0.27,-1.0,0.0,138.25,24.59,24.58,36.22,0.04,-272.73,-272.73,-44,544,-933,17.3,0.7,-42.6,17.1,0.8,-41.8,5.73,2.41,-39.2,22.4
2012-02-29 00:20:00,0.0,1.9024,0.0009,401.38,0.31,-1.0,0.0,138.25,24.57,24.58,36.22,0.04,-272.73,-272.73,-44,544,-933,17.3,0.7,-42.6,17.1,0.8,-41.8,5.73,2.46,-39.2,22.4
2012-02-29 00:21:00,0.0,1.9023,0.0009,401.39,0.27,-1.0,0.0,138.25,24.55,24.57,36.22,0.04,-272.73,-272.73,-44,544,-933,17.3,0.7,-42.6,17.1,0.8,-41.8,5.73,2.51,-39.2,22.4
2012-02-29 00:22:00,0.0,1.9018,0.0010,401.44,0.31,-1.0,0.0,138.25,24.52,24.58,36.22,0.04,-272.73,-272.73,-44,544,-933,17.2,0.7,-42.5,17.1,0.8,-41.8,5.73,2.51,-39.2,22.4
2012-02-29 00:23:00,0.0,1.9023,0.0008,401.37,0.24,-1.0,0.0,138.25,24.50,24.58,36.23,0.04,-272.73,-272.73,-44,544,-933,17.2,0.7,-42.3,17.0,0.8,-41.7,5.73,2.46,-39.2,22.4
2012-02-29 00:24:00,0.0,1.9026,0.0008,401.44,0.24,-1.0,0.0,138.25,24.48,24.58,36.22,0.04,-272.73,-272.73,-44,544,-933,17.2,0.7,-42.3,17.0,0.8,-41.5,5.73,2.42,-39.2,22.4
2012-02-29 00:25:00,0.0,1.9032,0.0009,401.44,0.26,-1.0,0.0,138.25,24.46,24.57,36.22,0.04,-272.73,-272.73,-44,544,-933,17.1,0.7,-42.4,17.0,0.8,-41.5,5.73,2.44,-39.2,22.3
2012-02-29 00:26:00,0.0,1.9032,0.0009,401.47,0.27,-1.0,0.0,138.25,24.44,24.57,36.22,0.04,-272.73,-272.73,-44,544,-933,17.1,0.7,-42.4,17.0,0.8,-41.5,5.73,2.50,-39.2,22.3
2012-02-29 00:27:00,0.0,1.9051,0.0011,401.40,0.23,-1.0,0.0,138.25,24.42,24.57,36.23,0.04,-272.73,-272.73,-44,544,-933,17.1,0.8,-42.1,16.9,0.8,-41.5,5.73,2.52,-39.2,22.3
2012-02-29 00:28:00,0.0,1.9038,0.0010,401.47,0.22,-1.0,0.0,138.25,24.40,24.58,36.22,0.04,-272.72,-272.72,-44,544,-933,17.1,0.8,-42.1,16.9,0.8,-41.6,5.73,2.48,-39.1,22.3
2012-02-29 00:29:00,0.0,1.9035,0.0009,401.44,0.26,-1.0,0.0,138.25,24.38,24.58,36.23,0.04,-272.73,-272.72,-44,544,-933,17.0,0.8,-42.1,16.9,0.8,-41.6,5.73,2.42,-39.1,22.2
2012-02-29 00:30:00,0.0,1.9034,0.0009,401.36,0.24,-1.0,0.0,138.25,24.36,24.57,36.23,0.04,-272.73,-272.73,-44,544,-933,17.0,0.8,-42.1,16.9,0.8,-41.4,5.73,2.44,-39.1,22.2
2012-02-29 00:31:00,0.0,1.9032,0.0010,401.44,0.27,-1.0,0.0,138.25,24.35,24.57,36.23,0.04,-272.73,-272.73,-44,544,-933,16.9,0.8,-41.9,16.9,0.8,-41.2,5.73,2.48,-39.0,22.2
2012-02-29 00:32:00,0.0,1.9030,0.0010,401.50,0.28,-1.0,0.0,138.25,24.33,24.57,36.22,0.04,-272.73,-272.73,-44,544,-933,16.9,0.8,-41.8,16.9,0.8,-41.2,5.73,2.52,-39.0,22.2
2012-02-29 00:33:00,0.0,1.9035,0.0009,401.41,0.29,-1.0,0.0,138.25,24.31,24.57,36.23,0.04,-272.73,-272.73,-44,544,-933,16.9,0.8,-41.9,16.9,0.8,-41.3,5.73,2.49,-39.0,22.3
2012-02-29 00:34:00,0.0,1.9041,0.0009,401.47,0.26,-1.0,0.0,138.25,24.29,24.57,36.23,0.04,-272.73,-272.73,-44,544,-933,16.9,0.8,-41.8,16.9,0.8,-41.2,5.73,2.44,-39.0,22.3
2012-02-29 00:35:00,0.0,1.9040,0.0009,401.56,0.27,-1.0,0.0,138.25,24.27,24.57,36.22,0.04,-272.73,-272.73,-44,544,-933,16.9,0.8,-41.8,16.9,0.9,-41.2,5.73,2.42,-39.0,22.3
2012-02-29 00:36:00,0.0,1.9041,0.0008,401.55,0.27,-1.0,0.0,138.25,24.25,24.58,36.23,0.04,-272.73,-272.73,-44,544,-932,16.8,0.8,-41.9,16.8,0.8,-41.3,5.73,2.47,-39.0,22.3
2012-02-29 00:37:00,0.0,1.9046,0.0011,401.62,0.27,-1.0,0.0,138.25,24.23,24.57,36.23,0.04,-272.73,-272.73,-44,544,-933,16.8,0.8,-41.9,16.8,0.8,-41.3,5.73,2.51,-39.0,22.3
2012-02-29 00:38:00,0.0,1.9038,0.0009,401.55,0.29,-1.0,0.0,138.25,24.21,24.57,36.23,0.04,-272.73,-272.73,-44,543,-932,16.8,0.8,-41.8,16.8,0.9,-41.3,5.73,2.51,-39.0,22.3
2012-02-29 00:39:00,0.0,1.9036,0.0009,401.64,0.27,-1.0,0.0,138.25,24.20,24.57,36.23,0.04,-272.72,-272.73,-44,544,-932,16.8,0.8,-41.9,16.8,0.9,-41.0,5.73,2.45,-38.9,22.3
2012-02-29 00:40:00,0.0,1.9036,0.0009,401.63,0.27,-1.0,0.0,138.25,24.18,24.58,36.23,0.04,-272.73,-272.73,-44,544,-933,16.8,0.8,-41.9,16.8,0.9,-41.0,5.73,2.41,-38.9,22.2
2012-02-29 00:41:00,0.0,1.9046,0.0009,401.67,0.29,-1.0,0.0,138.25,24.17,24.57,36.23,0.04,-272.73,-272.73,-44,543,-932,16.8,0.8,-41.9,16.8,0.9,-41.0,5.73,2.45,-38.9,22.2
2012-02-29 00:42:00,0.0,1.9040,0.0009,401.73,0.25,-1.0,0.0,138.25,24.15,24.58,36.23,0.04,-272.73,-272.73,-44,544,-933,16.8,0.8,-41.9,16.8,0.9,-41.0,5.73,2.50,-38.8,22.2
2012-02-29 00:43:00,0.0,1.9045,0.0008,401.57,0.30,-1.0,0.0,138.25,24.13,24.57,36.24,0.04,-272.73,-272.73,-44,544,-932,16.7,0.8,-41.9,16.8,0.9,-41.0,5.73,2.51,-38.8,22.3
2012-02-29 00:44:00,0.0,1.9046,0.0008,401.84,0.29,-1.0,0.0,138.25,24.12,24.57,36.22,0.04,-272.73,-272.73,-44,544,-932,16.7,0.8,-41.9,16.8,0.9,-41.0,5.73,2.45,-38.8,22.3
2012-02-29 00:45:00,0.0,1.9042,0.0009,401.75,0.22,-1.0,0.0,138.25,24.10,24.58,36.23,0.04,-272.73,-272.73,-44,544,-932,16.7,0.8,-41.9,16.8,0.9,-41.2,5.73,2.41,-38.8,22.3
2012-02-29 00:46:00,0.0,1.9042,0.0008,401.75,0.26,-1.0,0.0,138.25,24.08,24.58,36.23,0.04,-272.73,-272.73,-44,544,-933,16.7,0.8,-41.9,16.7,0.8,-41.4,5.73,2.44,-38.8,22.3
2012-02-29 00:47:00,0.0,1.9047,0.0009,401.72,0.28,-1.0,0.0,138.25,24.06,24.57,36.23,0.04,-272.73,-272.73,-44,544,-932,16.7,0.8,-42.0,16.7,0.8,-41.4,5.73,2.49,-38.9,22.2
2012-02-29 00:48:00,0.0,1.9045,0.0007,401.94,0.30,-1.0,0.0,138.25,24.05,24.58,36.23,0.04,-272.73,-272.73,-44,543,-933,16.7,0.8,-41.9,16.7,0.8,-41.4,5.73,2.51,-38.9,22.2
2012-02-29 00:49:00,0.0,1.9044,0.0009,401.78,0.27,-1.0,0.0,138.25,24.03,24.58,36.23,0.04,-272.73,-272.73,-44,543,-932,16.7,0.8,-41.9,16.7,0.8,-41.4,5.73,2.48,-38.9,22.2
2012-02-29 00:50:00,0.0,1.9051,0.0008,401.65,0.27,-1.0,0.0,138.25,24.01,24.57,36.23,0.04,-272.73,-272.73,-44,543,-932,16.7,0.8,-42.0,16.7,0.8,-41.3,5.73,2.43,-39.0,22.2
2012-02-29 00:51:00,0.0,1.9050,0.0008,401.58,0.31,-1.0,0.0,138.25,24.00,24.57,36.23,0.04,-272.73,-272.73,-44,543,-933,16.7,0.8,-41.9,16.7,0.8,-41.3,5.73,2.43,-39.0,22.3
2012-02-29 00:52:00,0.0,1.9046,0.0010,401.68,0.25,-1.0,0.0,138.25,23.98,24.57,36.23,0.04,-272.73,-272.73,-44,543,-932,16.7,0.8,-41.9,16.7,0.8,-41.4,5.73,2.47,-39.0,22.3
2012-02-29 00:53:00,0.0,1.9041,0.0009,401.53,0.24,-1.0,0.0,138.25,23.96,24.58,36.23,0.04,-272.72,-272.73,-44,543,-932,16.7,0.8,-41.9,16.7,0.9,-41.1,5.73,2.50,-39.0,22.2
2012-02-29 00:54:00,0.0,1.9045,0.0008,401.65,0.29,-1.0,0.0,138.26,23.95,24.57,36.23,0.04,-272.73,-272.73,-44,543,-932,16.7,1.0,-40.0,16.7,1.1,-39.2,5.73,2.50,-39.0,22.2
2012-02-29 00:55:00,0.0,1.9044,0.0008,401.57,0.25,-1.0,0.0,138.25,23.93,24.57,36.24,0.04,-272.73,-272.73,-44,543,-932,16.7,0.8,-41.6,16.7,0.9,-40.9,5.73,2.47,-39.0,22.2
2012-02-29 00:56:00,0.0,1.9041,0.0008,401.59,0.31,-1.0,0.0,138.26,23.91,24.58,36.23,0.04,-272.73,-272.73,-44,543,-933,16.8,0.8,-41.9,16.7,0.9,-41.3,5.73,2.44,-39.0,22.2
2012-02-29 00:57:00,0.0,1.9041,0.0009,401.59,0.23,-1.0,0.0,138.26,23.89,24.57,36.24,0.04,-272.73,-272.73,-44,543,-932,16.8,0.8,-41.9,16.7,0.8,-41.3,5.73,2.43,-39.1,22.2
2012-02-29 00:58:00,0.0,1.9041,0.0008,401.71,0.29,-1.0,0.0,138.25,23.88,24.58,36.23,0.04,-272.73,-272.73,-44,543,-932,16.8,0.8,-41.9,16.7,0.8,-41.3,5.73,2.46,-39.1,22.2
2012-02-29 00:59:00,0.0,1.9040,0.0008,401.66,0.26,-1.0,0.0,138.26,23.86,24.58,36.23,0.04,-272.73,-272.73,-44,543,-932,16.8,0.8,-41.9,16.7,0.8,-41.3,5.73,2.51,-39.1,22.2
2012-02-29 01:00:00,0.0,1.9043,0.0009,401.59,0.28,-1.0,0.0,138.26,23.84,24.57,36.23,0.04,-272.73,-272.73,-44,543,-932,16.8,0.8,-41.9,16.7,0.8,-41.4,5.73,2.51,-39.1,22.2
2012-02-29 01:01:00,0.0,1.9038,0.0007,401.64,0.25,-1.0,0.0,138.25,23.82,24.58,36.23,0.04,-272.72,-272.73,-44,543,-932,16.8,0.8,-41.9,16.8,0.9,-41.2,5.73,2.48,-39.1,22.2
2012-02-29 01:02:00,0.0,1.9035,0.0009,401.68,0.25,-1.0,0.0,138.26,23.81,24.58,36.23,0.04,-272.72,-272.73,-44,543,-932,16.8,0.8,-41.9,16.7,0.9,-41.1,5.73,2.43,-39.0,22.2
2012-02-29 01:03:00,0.0,1.9030,0.0009,401.56,0.25,-1.0,0.0,138.26,23.80,24.58,36.24,0.04,-272.73,-272.73,-44,543,-932,16.8,0.8,-41.9,16.7,0.9,-41.0,5.73,2.43,-38.8,22.2
2012-02-29 01:04:00,0.0,1.9031,0.0008,401.60,0.26,-1.0,0.0,138.26,23.78,24.58,36.23,0.04,-272.73,-272.73,-44,543,-932,16.8,0.8,-41.5,16.7,0.9,-41.0,5.73,2.48,-38.4,22.2
2012-02-29 01:05:00,0.0,1.9027,0.0008,401.61,0.25,-1.0,0.0,138.26,23.76,24.58,36.24,0.04,-272.73,-272.73,-44,543,-932,16.8,0.8,-41.6,16.7,0.9,-41.0,5.73,2.52,-38.4,22.2
2012-02-29 01:06:00,0.0,1.9031,0.0008,401.61,0.30,-1.0,0.0,138.26,23.75,24.58,36.24,0.04,-272.72,-272.73,-44,543,-932,16.8,0.8,-41.6,16.7,0.9,-40.7,5.73,2.50,-38.5,22.2
2012-02-29 01:07:00,0.0,1.9029,0.0008,401.59,0.30,-1.0,0.0,138.26,23.73,24.58,36.24,0.04,-272.73,-272.73,-44,543,-932,16.8,0.8,-41.4,16.8,0.9,-40.7,5.73,2.46,-38.5,22.1
2012-02-29 01:08:00,0.0,1.9029,0.0009,401.56,0.23,-1.0,0.0,138.26,23.72,24.58,36.24,0.04,-272.73,-272.73,-44,543,-932,16.8,0.9,-41.2,16.8,0.9,-40.7,5.73,2.43,-38.5,22.1
2012-02-29 01:09:00,0.0,1.9031,0.0010,401.61,0.27,-1.0,0.0,138.25,23.70,24.58,36.24,0.04,-272.73,-272.73,-44,543,-933,16.8,0.8,-41.3,16.8,0.9,-40.6,5.73,2.44,-38.4,22.1
2012-02-29 01:10:00,0.0,1.9032,0.0007,401.55,0.28,-1.0,0.0,138.26,23.68,24.57,36.25,0.04,-272.73,-272.73,-44,543,-932,16.8,0.9,-41.2,16.8,0.9,-40.4,5.73,2.49,-38.4,22.1
2012-02-29 01:11:00,0.0,1.9034,0.0010,401.67,0.28,-1.0,0.0,138.26,23.67,24.58,36.24,0.04,-272.73,-272.73,-44,543,-932,16.8,0.9,-41.0,16.8,0.9,-40.4,5.73,2.50,-38.4,22.1
2012-02-29 01:12:00,0.0,1.9032,0.0009,401.62,0.24,-1.0,0.0,138.26,23.66,24.58,36.25,0.04,-272.72,-272.73,-44,543,-932,16.8,0.9,-40.9,16.8,0.9,-40.3,5.73,2.49,-38.4,22.1
2012-02-29 01:13:00,0.0,1.9032,0.0009,401.62,0.28,-1.0,0.0,138.26,23.64,24.57,36.25,0.04,-272.73,-272.73,-44,543,-932,16.8,0.9,-41.0,16.8,1.0,-40.2,5.73,2.44,-38.4,22.2
2012-02-29 01:14:00,0.0,1.9031,0.0009,401.71,0.31,-1.0,0.0,138.26,23.63,24.58,36.24,0.04,-272.73,-272.73,-44,543,-932,16.9,0.9,-40.9,16.8,1.0,-40.1,5.73,2.42,-38.4,22.2
2012-02-29 01:15:00,0.0,1.9032,0.0009,401.57,0.31,-1.0,0.0,138.26,23.61,24.58,36.25,0.04,-272.73,-272.73,-44,543,-932,16.9,0.9,-41.0,16.8,1.0,-40.2,5.73,2.46,-38.4,22.1
2012-02-29 01:16:00,0.0,1.9029,0.0009,401.67,0.24,-1.0,0.0,138.25,23.60,24.58,36.24,0.04,-272.73,-272.73,-44,543,-932,16.8,0.9,-40.7,16.8,1.0,-40.2,5.73,2.51,-38.4,22.1
2012-02-29 01:17:00,0.0,1.9035,0.0009,401.70,0.24,-1.0,0.0,138.26,23.58,24.57,36.24,0.04,-272.72,-272.73,-44,543,-932,16.8,0.9,-40.6,16.7,1.0,-40.2,5.73,2.51,-38.4,22.1
2012-02-29 01:18:00,0.0,1.9035,0.0008,401.64,0.30,-1.0,0.0,138.26,23.57,24.58,36.24,0.04,-272.73,-272.73,-44,543,-932,16.8,0.9,-40.7,16.7,1.0,-40.2,5.73,2.46,-38.4,22.1
2012-02-29 01:19:00,0.0,1.9034,0.0009,401.68,0.24,-1.0,0.0,138.26,23.55,24.58,36.24,0.04,-272.73,-272.73,-44,543,-932,16.8,0.9,-40.6,16.7,1.0,-40.2,5.73,2.42,-38.4,22.1
2012-02-29 01:20:00,0.0,1.9038,0.0008,401.67,0.30,-1.0,0.0,138.26,23.54,24.58,36.24,0.04,-272.73,-272.73,-44,543,-932,16.7,0.9,-40.7,16.7,1.0,-40.2,5.73,2.46,-38.3,22.1
2012-02-29 01:21:00,0.0,1.9035,0.0008,401.62,0.26,-1.0,0.0,138.26,23.53,24.58,36.25,0.04,-272.73,-272.73,-44,543,-932,16.7,0.9,-40.7,16.7,1.0,-40.2,5.73,2.52,-38.3,22.1
2012-02-29 01:22:00,0.0,1.9033,0.0009,401.59,0.25,-1.0,0.0,138.26,23.51,24.58,36.25,0.04,-272.73,-272.73,-44,543,-932,16.7,0.9,-40.7,16.7,1.0,-40.2,5.73,2.50,-38.3,22.1
2012-02-29 01:23:00,0.0,1.9037,0.0009,401.70,0.25,-1.0,0.0,138.26,23.50,24.58,36.25,0.04,-272.73,-272.73,-44,543,-932,16.7,0.9,-40.7,16.7,1.0,-40.2,5.73,2.44,-38.2,22.1
2012-02-29 01:24:00,0.0,1.9039,0.0009,401.74,0.26,-1.0,0.0,138.26,23.48,24.58,36.25,0.04,-272.73,-272.73,-44,543,-932,16.7,0.9,-40.7,16.7,1.0,-40.2,5.73,2.42,-38.1,22.2
2012-02-29 01:25:00,0.0,1.9042,0.0008,401.69,0.28,-1.0,0.0,138.26,23.47,24.58,36.25,0.04,-272.73,-272.73,-44,543,-932,16.7,0.9,-40.7,16.7,1.0,-40.2,5.73,2.47,-38.0,22.2
2012-02-29 01:26:00,0.0,1.9044,0.0009,401.75,0.31,-1.0,0.0,138.26,23.46,24.58,36.24,0.04,-272.73,-272.73,-44,543,-932,16.7,0.9,-40.7,16.7,1.0,-40.2,5.73,2.52,-37.9,22.3
2012-02-29 01:27:00,0.0,1.9044,0.0010,401.77,0.26,-1.0,0.0,138.26,23.45,24.58,36.25,0.04,-272.73,-272.73,-44,543,-932,16.8,0.9,-40.6,16.8,1.0,-40.1,5.73,2.49,-37.8,22.3
2012-02-29 01:28:00,0.0,1.9049,0.0007,401.85,0.33,-1.0,0.0,138.26,23.43,24.58,36.25,0.04,-272.73,-272.73,-44,544,-932,16.8,0.9,-40.7,16.8,1.0,-40.0,5.73,2.41,-37.7,22.4
2012-02-29 01:29:00,0.0,1.9047,0.0010,401.83,0.26,-1.0,0.0,138.25,23.42,24.58,36.25,0.04,-272.73,-272.73,-44,544,-932,16.8,0.9,-40.7,16.8,1.0,-39.9,5.73,2.44,-37.7,22.4
2012-02-29 01:30:00,0.0,1.9046,0.0009,401.80,0.27,-1.0,0.0,138.26,23.41,24.58,36.25,0.04,-272.72,-272.73,-44,544,-932,16.9,0.9,-40.6,16.8,1.0,-39.8,5.73,2.52,-37.6,22.5
2012-02-29 01:31:00,0.0,1.9050,0.0009,401.88,0.26,-1.0,0.0,138.25,23.41,24.58,36.25,0.04,-272.73,-272.73,-44,544,-932,16.8,0.9,-40.5,16.8,1.0,-39.8,5.73,2.49,-37.6,22.5
2012-02-29 01:32:00,0.0,1.9049,0.0009,401.84,0.28,-1.0,0.0,138.26,23.39,24.58,36.25,0.04,-272.73,-272.73,-44,544,-932,16.9,0.9,-40.4,16.8,1.0,-39.9,5.73,2.40,-37.5,22.5
2012-02-29 01:33:00,0.0,1.9050,0.0008,401.96,0.27,-1.0,0.0,138.26,23.38,24.58,36.25,0.04,-272.73,-272.73,-44,544,-932,16.9,0.9,-40.3,16.8,1.0,-39.7,5.73,2.45,-37.5,22.4
2012-02-29 01:34:00,0.0,1.9049,0.0009,401.88,0.32,-1.0,0.0,138.25,23.38,24.58,36.25,0.04,-272.73,-272.73,-44,544,-932,16.9,0.9,-40.3,16.8,1.0,-39.6,5.73,2.52,-37.5,22.5
2012-02-29 01:35:00,0.0,1.9049,0.0008,401.81,0.29,-1.0,0.0,138.25,23.37,24.58,36.25,0.04,-272.73,-272.73,-44,544,-932,16.9,0.9,-40.3,16.8,1.0,-39.6,5.73,2.48,-37.5,22.4
2012-02-29 01:36:00,0.0,1.9052,0.0007,401.99,0.24,-1.0,0.0,138.25,23.36,24.58,36.25,0.04,-272.73,-272.73,-44,544,-932,16.9,0.9,-40.3,16.8,1.0,-39.6,5.73,2.41,-37.5,22.5
2012-02-29 01:37:00,0.0,1.9046,0.0010,401.89,0.27,-1.0,0.0,138.25,23.35,24.58,36.25,0.04,-272.73,-272.73,-44,544,-932,16.9,0.9,-40.3,16.9,1.0,-39.6,5.73,2.44,-37.5,22.4
2012-02-29 01:38:00,0.0,1.9049,0.0008,401.77,0.27,-1.0,0.0,138.25,23.34,24.57,36.25,0.04,-272.73,-272.73,-44,544,-932,16.9,0.9,-40.3,16.9,1.0,-39.6,5.73,2.52,-37.5,22.4
2012-02-29 01:39:00,0.0,1.9047,0.0009,401.79,0.29,-1.0,0.0,138.25,23.33,24.57,36.25,0.04,-272.73,-272.73,-44,544,-932,16.9,0.9,-40.3,16.9,1.0,-39.6,5.73,2.49,-37.5,22.4
2012-02-29 01:40:00,0.0,1.9045,0.0009,401.90,0.29,-1.0,0.0,138.25,23.32,24.58,36.25,0.04,-272.73,-272.73,-44,544,-932,16.9,0.9,-40.3,16.9,1.0,-39.8,5.73,2.42,-37.4,22.4
2012-02-29 01:41:00,0.0,1.9040,0.0008,401.90,0.29,-1.0,0.0,138.25,23.31,24.58,36.24,0.04,-272.73,-272.73,-44,545,-932,16.9,0.9,-40.3,16.9,1.0,-39.8,5.73,2.42,-37.5,22.5
2012-02-29 01:42:00,0.0,1.9044,0.0007,401.80,0.29,-1.0,0.0,138.25,23.31,24.58,36.26,0.04,-272.73,-272.73,-44,545,-932,16.9,0.9,-40.3,16.9,1.0,-39.8,5.73,2.48,-37.4,22.5
2012-02-29 01:43:00,0.0,1.9050,0.0008,401.92,0.30,-1.0,0.0,138.25,23.30,24.57,36.25,0.04,-272.72,-272.73,-44,545,-933,16.9,0.9,-40.3,16.9,1.0,-39.7,5.73,2.51,-37.4,22.5
2012-02-29 01:44:00,0.0,1.9046,0.0009,401.81,0.24,-1.0,0.0,138.25,23.29,24.58,36.25,0.04,-272.72,-272.73,-44,545,-933,16.9,0.9,-40.4,16.9,1.0,-39.6,5.73,2.46,-37.5,22.6
2012-02-29 01:45:00,0.0,1.9044,0.0008,401.80,0.30,-1.0,0.0,138.25,23.28,24.58,36.25,0.04,-272.73,-272.73,-44,545,-932,16.9,0.9,-40.3,16.9,1.0,-39.6,5.73,2.41,-37.5,22.6
2012-02-29 01:46:00,0.0,1.9051,0.0008,401.98,0.25,-1.0,0.0,138.25,23.27,24.58,36.25,0.04,-272.73,-272.73,-44,545,-932,16.9,0.9,-40.4,16.9,1.0,-39.6,5.73,2.44,-37.5,22.6
2012-02-29 01:47:00,0.0,1.9052,0.0008,401.81,0.26,-1.0,0.0,138.25,23.27,24.58,36.26,0.04,-272.72,-272.73,-44,545,-933,16.9,0.9,-40.4,16.9,1.0,-39.6,5.73,2.50,-37.5,22.6
2012-02-29 01:48:00,0.0,1.9050,0.0008,401.82,0.24,-1.0,0.0,138.25,23.26,24.58,36.26,0.04,-272.73,-272.73,-44,545,-933,16.9,0.9,-40.3,16.9,1.0,-39.6,5.73,2.51,-37.5,22.6
2012-02-29 01:49:00,0.0,1.9045,0.0008,401.85,0.27,-1.0,0.0,138.25,23.25,24.58,36.25,0.04,-272.73,-272.73,-44,545,-932,16.9,0.9,-40.4,16.9,1.0,-39.6,5.73,2.44,-37.5,22.6
2012-02-29 01:50:00,0.0,1.9046,0.0008,401.85,0.30,-1.0,0.0,138.25,23.25,24.58,36.26,0.04,-272.73,-272.72,-44,545,-932,16.9,0.9,-40.4,16.9,1.0,-39.7,5.73,2.41,-37.5,22.7
2012-02-29 01:51:00,0.0,1.9052,0.0009,401.86,0.27,-1.0,0.0,138.25,23.24,24.58,36.25,0.04,-272.73,-272.73,-44,545,-932,16.9,0.9,-40.4,16.9,1.0,-39.9,5.73,2.46,-37.5,22.7
2012-02-29 01:52:00,0.0,1.9052,0.0007,401.94,0.30,-1.0,0.0,138.25,23.24,24.58,36.25,0.04,-272.73,-272.73,-44,545,-932,16.9,0.9,-40.6,16.9,1.0,-39.9,5.73,2.52,-37.5,22.7
2012-02-29 01:53:00,0.0,1.9053,0.0007,401.86,0.23,-1.0,0.0,138.25,23.23,24.58,36.25,0.04,-272.73,-272.73,-44,545,-932,16.9,0.9,-40.6,16.9,1.0,-40.1,5.73,2.49,-37.5,22.6
2012-02-29 01:54:00,0.0,1.9050,0.0007,401.88,0.28,-1.0,0.0,138.25,23.23,24.58,36.26,0.04,-272.72,-272.73,-44,545,-932,16.9,0.9,-40.6,16.9,1.0,-40.0,5.73,2.42,-37.4,22.7
2012-02-29 01:55:00,0.0,1.9051,0.0008,401.87,0.30,-1.0,0.0,138.25,23.22,24.58,36.26,0.04,-272.73,-272.73,-44,545,-933,16.9,0.9,-40.6,16.9,1.0,-40.1,5.73,2.42,-37.4,22.7
2012-02-29 01:56:00,0.0,1.9052,0.0008,401.90,0.26,-1.0,0.0,138.25,23.22,24.58,36.25,0.04,-272.73,-272.73,-45,545,-933,16.9,0.9,-40.6,17.0,1.0,-40.1,5.73,2.49,-37.4,22.7
2012-02-29 01:57:00,0.0,1.9060,0.0008,401.90,0.26,-1.0,0.0,138.25,23.21,24.58,36.26,0.04,-272.73,-272.73,-44,546,-932,16.9,0.9,-40.6,17.0,1.0,-40.0,5.73,2.51,-37.4,22.7
2012-02-29 01:58:00,0.0,1.9059,0.0008,401.94,0.29,-1.0,0.0,138.25,23.20,24.58,36.25,0.04,-272.73,-272.73,-44,546,-932,16.9,0.9,-40.6,17.0,1.0,-39.8,5.73,2.46,-37.4,22.7
2012-02-29 01:59:00,0.0,1.9071,0.0010,402.06,0.22,-1.0,0.0,138.25,23.20,24.58,36.26,0.04,-272.73,-272.73,-44,546,-933,17.0,0.9,-40.6,17.0,1.0,-39.9,5.73,2.41,-37.4,22.8
2012-02-29 02:00:00,0.0,1.9072,0.0009,401.92,0.30,-1.0,0.0,138.25,23.19,24.58,36.26,0.04,-272.73,-272.73,-44,546,-933,17.0,0.9,-40.6,17.0,1.0,-39.8,5.73,2.45,-37.3,22.8
2012-02-29 02:01:00,0.0,1.9074,0.0011,402.02,0.28,-1.0,0.0,138.25,23.19,24.58,36.25,0.04,-272.73,-272.72,-45,546,-933,17.0,0.9,-40.6,17.0,1.0,-39.8,5.73,2.51,-37.3,22.8
2012-02-29 02:02:00,0.0,1.9070,0.0010,401.99,0.30,-1.0,0.0,138.25,23.19,24.58,36.26,0.04,-272.72,-272.73,-45,546,-933,17.0,0.9,-40.6,17.0,1.0,-39.8,5.73,2.49,-37.3,22.8
2012-02-29 02:03:00,0.0,1.9078,0.0008,402.11,0.25,-1.0,0.0,138.25,23.18,24.58,36.25,0.04,-272.73,-272.73,-45,546,-932,17.0,0.9,-40.6,17.0,1.0,-39.8,5.73,2.42,-37.3,22.8
2012-02-29 02:04:00,0.0,1.9080,0.0009,401.98,0.27,-1.0,0.0,138.25,23.18,24.58,36.25,0.04,-272.73,-272.73,-44,546,-933,17.0,0.9,-40.6,17.0,1.0,-39.7,5.73,2.42,-37.3,22.8
2012-02-29 02:05:00,0.0,1.9077,0.0008,401.97,0.23,-1.0,0.0,138.25,23.18,24.58,36.26,0.04,-272.73,-272.73,-44,546,-933,17.0,0.9,-40.3,17.0,1.0,-39.8,5.73,2.49,-37.3,22.8
2012-02-29 02:06:00,0.0,1.9080,0.0007,402.01,0.28,-1.0,0.0,138.25,23.17,24.58,36.26,0.04,-272.73,-272.73,-44,546,-932,17.0,0.9,-40.3,17.0,1.0,-39.8,5.73,2.51,-37.3,22.9
2012-02-29 02:07:00,0.0,1.9078,0.0007,402.00,0.26,-1.0,0.0,138.25,23.17,24.58,36.26,0.04,-272.73,-272.73,-45,546,-932,17.0,0.9,-40.3,17.1,1.0,-39.8,5.73,2.46,-37.3,22.9
2012-02-29 02:08:00,0.0,1.9074,0.0008,402.02,0.28,-1.0,0.0,138.25,23.17,24.58,36.26,0.04,-272.73,-272.73,-45,546,-933,17.0,0.9,-40.2,17.1,1.0,-39.7,5.73,2.40,-37.2,22.9
2012-02-29 02:09:00,0.0,1.9076,0.0009,402.01,0.31,-1.0,0.0,138.25,23.17,24.58,36.26,0.04,-272.73,-272.73,-45,546,-933,17.1,0.9,-40.2,17.1,1.0,-39.7,5.73,2.44,-37.2,22.9
2012-02-29 02:10:00,0.0,1.9079,0.0008,402.08,0.30,-1.0,0.0,138.25,23.16,24.58,36.26,0.04,-272.73,-272.72,-44,547,-933,17.1,0.9,-40.3,17.1,1.0,-39.6,5.73,2.51,-37.2,22.9
2012-02-29 02:11:00,0.0,1.9085,0.0009,402.07,0.29,-1.0,0.0,138.25,23.16,24.58,36.26,0.04,-272.73,-272.73,-44,547,-932,17.1,0.9,-40.2,17.1,1.0,-39.7,5.73,2.50,-37.1,22.9
2012-02-29 02:12:00,0.0,1.9084,0.0009,402.20,0.27,-1.0,0.0,138.25,23.16,24.58,36.25,0.04,-272.73,-272.73,-45,547,-933,17.1,0.9,-40.3,17.2,1.0,-39.7,5.73,2.43,-37.1,23.0
2012-02-29 02:13:00,0.0,1.9079,0.0008,402.18,0.29,-1.0,0.0,138.25,23.15,24.58,36.26,0.04,-272.73,-272.72,-45,547,-933,17.1,0.9,-40.2,17.2,1.0,-39.6,5.73,2.41,-37.1,23.0
2012-02-29 02:14:00,0.0,1.9082,0.0009,402.16,0.28,-1.0,0.0,138.25,23.15,24.58,36.26,0.04,-272.73,-272.73,-45,547,-933,17.2,0.9,-40.2,17.2,1.0,-39.7,5.73,2.47,-37.1,23.0
2012-02-29 02:15:00,0.0,1.9082,0.0009,402.11,0.30,-1.0,0.0,138.24,23.15,24.57,36.26,0.04,-272.73,-272.73,-45,547,-933,17.2,0.9,-40.3,17.2,1.0,-39.7,5.73,2.51,-37.1,23.0
2012-02-29 02:16:00,0.0,1.9084,0.0009,402.13,0.27,-1.0,0.0,138.25,23.15,24.58,36.26,0.04,-272.73,-272.73,-45,547,-933,17.1,0.9,-40.2,17.2,1.0,-39.7,5.73,2.47,-37.1,23.0
2012-02-29 02:17:00,0.0,1.9080,0.0007,402.18,0.25,-1.0,0.0,138.24,23.15,24.58,36.26,0.04,-272.72,-272.73,-44,547,-933,17.1,0.9,-40.2,17.2,1.0,-39.7,5.73,2.41,-37.1,23.0
2012-02-29 02:18:00,0.0,1.9083,0.0009,402.19,0.26,-1.0,0.0,138.25,23.14,24.58,36.26,0.04,-272.73,-272.73,-45,547,-933,17.1,0.9,-40.2,17.2,1.0,-39.6,5.73,2.43,-37.1,23.0